| time (UTC) | temp F | wind direction | speed MPH | gust MPH | rain 1hr in | rain 24hr in | rain mn in | humidity % | barometer mb |
| 20260904083038 | 71 | 115 | 11.0 | 26.0 | 0.00 | 0.00 | 0.00 | 17 | 1002.4 |
| 20260904081533 | 72 | 130 | 7.0 | 15.0 | 0.00 | 0.00 | 0.00 | 18 | 1002.3 |
| 20260904080035 | 72 | 88 | 9.0 | 21.0 | 0.00 | 0.00 | 0.00 | 18 | 1002.5 |
| 20260904074529 | 72 | 161 | 6.0 | 24.0 | 0.00 | 0.00 | 0.00 | 18 | 1002.2 |
| 20260904073027 | 72 | 128 | 6.0 | 21.0 | 0.00 | 0.00 | 0.00 | 19 | 1002.0 |
| 20260904071524 | 72 | 127 | 4.0 | 14.0 | 0.00 | 0.00 | 0.00 | 19 | 1001.9 |
| 20260904070023 | 72 | 142 | 7.0 | 16.0 | 0.00 | 0.00 | 0.00 | 20 | 1002.0 |
| 20260904064526 | 73 | 130 | 5.0 | 21.0 | 0.00 | 0.00 | 0.00 | 19 | 1001.9 |
| 20260904063026 | 73 | 85 | 14.0 | 26.0 | 0.00 | 0.00 | 0.00 | 19 | 1001.7 |
| 20260904061518 | 73 | 123 | 5.0 | 17.0 | 0.00 | 0.00 | 0.00 | 20 | 1001.4 |
| 20260904060018 | 73 | 87 | 11.0 | 23.0 | 0.00 | 0.00 | 0.00 | 20 | 1001.4 |
| 20260904054519 | 73 | 63 | 7.0 | 22.0 | 0.00 | 0.00 | 0.00 | 20 | 1001.3 |
| 20260904053020 | 73 | 123 | 11.0 | 19.0 | 0.00 | 0.00 | 0.00 | 20 | 1001.2 |
| 20260904051518 | 73 | 144 | 7.0 | 14.0 | 0.00 | 0.00 | 0.00 | 20 | 1001.3 |
| 20260904050016 | 74 | 150 | 5.0 | 17.0 | 0.00 | 0.00 | 0.00 | 20 | 1001.3 |
| 20260904044517 | 74 | 172 | 10.0 | 13.0 | 0.00 | 0.00 | 0.00 | 20 | 1001.3 |
| 20260904043017 | 74 | 92 | 3.0 | 19.0 | 0.00 | 0.00 | 0.00 | 21 | 1001.4 |
| 20260904041515 | 74 | 142 | 8.0 | 13.0 | 0.00 | 0.00 | 0.00 | 20 | 1001.2 |
| 20260904040015 | 73 | 158 | 4.0 | 12.0 | 0.00 | 0.00 | 0.00 | 21 | 1001.1 |
| 20260904034515 | 74 | 140 | 4.0 | 9.0 | 0.00 | 0.00 | 0.00 | 21 | 1001.2 |
| 20260904033015 | 74 | 130 | 5.0 | 10.0 | 0.00 | 0.00 | 0.00 | 21 | 1001.2 |
| 20260904031515 | 74 | 140 | 6.0 | 11.0 | 0.00 | 0.00 | 0.00 | 21 | 1001.1 |
| 20260904030014 | 74 | 163 | 3.0 | 10.0 | 0.00 | 0.00 | 0.00 | 21 | 1001.0 |
| 20260904024514 | 74 | 182 | 5.0 | 10.0 | 0.00 | 0.00 | 0.00 | 21 | 1000.8 |
| 20260904023015 | 75 | 164 | 5.0 | 11.0 | 0.00 | 0.00 | 0.00 | 21 | 1000.7 |
| 20260904021514 | 75 | 96 | 5.0 | 11.0 | 0.00 | 0.00 | 0.00 | 21 | 1000.7 |
| 20260904020013 | 76 | 164 | 2.0 | 12.0 | 0.00 | 0.00 | 0.00 | 21 | 1000.6 |
| 20260904014518 | 77 | 204 | 9.0 | 17.0 | 0.00 | 0.00 | 0.00 | 20 | 1000.7 |
| 20260904013018 | 78 | 214 | 8.0 | 14.0 | 0.00 | 0.00 | 0.00 | 20 | 1000.7 |
| 20260904011527 | 79 | 192 | 8.0 | 16.0 | 0.00 | 0.00 | 0.00 | 21 | 1000.8 |
| 20260904010013 | 78 | 235 | 7.0 | 17.0 | 0.00 | 0.00 | 0.00 | 21 | 1000.8 |
| 20260904004516 | 78 | 252 | 4.0 | 14.0 | 0.00 | 0.00 | 0.00 | 20 | 1000.8 |
| 20260904003014 | 79 | 225 | 6.0 | 19.0 | 0.00 | 0.00 | 0.00 | 19 | 1000.8 |
| 20260904001512 | 80 | 214 | 6.0 | 24.0 | 0.00 | 0.00 | 0.00 | 19 | 1000.6 |
| 20260904000011 | 81 | 239 | 10.0 | 27.0 | 0.00 | 0.00 | 0.00 | 18 | 1000.7 |
| 20260903234510 | 81 | 247 | 11.0 | 33.0 | 0.00 | 0.00 | 0.00 | 18 | 1001.0 |
| 20260903233008 | 80 | 217 | 13.0 | 29.0 | 0.00 | 0.00 | 0.00 | 18 | 1001.2 |
| 20260903231509 | 81 | 258 | 7.0 | 19.0 | 0.00 | 0.00 | 0.00 | 19 | 1001.4 |
| 20260903230005 | 81 | 241 | 3.0 | 27.0 | 0.00 | 0.00 | 0.00 | 18 | 1001.6 |
| 20260903224515 | 80 | 144 | 4.0 | 17.0 | 0.00 | 0.00 | 0.00 | 18 | 1001.9 |
| 20260903223004 | 80 | 208 | 8.0 | 22.0 | 0.00 | 0.00 | 0.00 | 18 | 1002.1 |
| 20260903221503 | 80 | 205 | 5.0 | 14.0 | 0.00 | 0.00 | 0.00 | 18 | 1002.4 |
| 20260903220001 | 80 | 157 | 5.0 | 21.0 | 0.00 | 0.00 | 0.00 | 17 | 1002.5 |
| 20260903214558 | 80 | 213 | 7.0 | 18.0 | 0.00 | 0.00 | 0.00 | 18 | 1002.9 |
| 20260903213057 | 80 | 204 | 6.0 | 23.0 | 0.00 | 0.00 | 0.00 | 18 | 1003.0 |
| 20260903211554 | 79 | 157 | 3.0 | 15.0 | 0.00 | 0.00 | 0.00 | 18 | 1003.2 |
| 20260903210059 | 79 | 85 | 6.0 | 23.0 | 0.00 | 0.00 | 0.00 | 20 | 1003.4 |
| 20260903204551 | 78 | 231 | 8.0 | 17.0 | 0.00 | 0.00 | 0.00 | 19 | 1003.6 |
| 20260903203050 | 78 | 223 | 5.0 | 16.0 | 0.00 | 0.00 | 0.00 | 19 | 1004.0 |
| 20260903201548 | 78 | 219 | 7.0 | 22.0 | 0.00 | 0.00 | 0.00 | 19 | 1004.3 |
| 20260903200047 | 77 | 173 | 7.0 | 25.0 | 0.00 | 0.00 | 0.00 | 19 | 1004.5 |
| 20260903194550 | 77 | 231 | 4.0 | 17.0 | 0.00 | 0.00 | 0.00 | 20 | 1004.6 |
| 20260903193052 | 77 | 134 | 5.0 | 10.0 | 0.00 | 0.00 | 0.00 | 20 | 1004.9 |
| 20260903191545 | 77 | 140 | 9.0 | 14.0 | 0.00 | 0.00 | 0.00 | 19 | 1005.3 |
| 20260903190044 | 76 | 243 | 4.0 | 15.0 | 0.00 | 0.00 | 0.00 | 20 | 1005.3 |
| 20260903184540 | 75 | 248 | 3.0 | 18.0 | 0.00 | 0.00 | 0.00 | 20 | 1005.4 |
| 20260903183040 | 75 | 211 | 6.0 | 15.0 | 0.00 | 0.00 | 0.00 | 22 | 1005.8 |
| 20260903181538 | 75 | 177 | 8.0 | 20.0 | 0.00 | 0.00 | 0.00 | 21 | 1006.1 |
| 20260903180038 | 74 | 221 | 5.0 | 17.0 | 0.00 | 0.00 | 0.00 | 21 | 1006.2 |
| 20260903174535 | 74 | 150 | 7.0 | 14.0 | 0.00 | 0.00 | 0.00 | 21 | 1006.1 |
| 20260903173033 | 73 | 243 | 6.0 | 15.0 | 0.00 | 0.00 | 0.00 | 22 | 1006.2 |
| 20260903171532 | 73 | 221 | 4.0 | 10.0 | 0.00 | 0.00 | 0.00 | 21 | 1006.5 |
| 20260903170034 | 73 | 140 | 4.0 | 14.0 | 0.00 | 0.00 | 0.00 | 21 | 1006.5 |
| 20260903164533 | 72 | 210 | 1.0 | 13.0 | 0.00 | 0.00 | 0.00 | 22 | 1006.4 |
| 20260903163031 | 72 | 153 | 7.0 | 15.0 | 0.00 | 0.00 | 0.00 | 20 | 1006.4 |
| 20260903161532 | 71 | 197 | 5.0 | 17.0 | 0.00 | 0.00 | 0.00 | 20 | 1006.4 |
| 20260903160029 | 70 | 193 | 6.0 | 21.0 | 0.00 | 0.00 | 0.00 | 21 | 1006.4 |
| 20260903154527 | 69 | 236 | 7.0 | 23.0 | 0.00 | 0.00 | 0.00 | 21 | 1006.2 |
| 20260903153027 | 69 | 202 | 9.0 | 20.0 | 0.00 | 0.00 | 0.00 | 20 | 1006.4 |
| 20260903151530 | 68 | 115 | 4.0 | 16.0 | 0.00 | 0.00 | 0.00 | 21 | 1006.3 |
| 20260903150039 | 66 | 168 | 3.0 | 11.0 | 0.00 | 0.00 | 0.00 | 21 | 1006.3 |
| 20260903144524 | 66 | 136 | 4.0 | 27.0 | 0.00 | 0.00 | 0.00 | 20 | 1006.3 |
| 20260903143036 | 65 | 213 | 7.0 | 15.0 | 0.00 | 0.00 | 0.00 | 20 | 1006.3 |
| 20260903141531 | 66 | 157 | 6.0 | 15.0 | 0.00 | 0.00 | 0.00 | 20 | 1006.2 |
| 20260903140020 | 66 | 146 | 7.0 | 19.0 | 0.00 | 0.00 | 0.00 | 19 | 1006.2 |
| 20260903134536 | 66 | 195 | 7.0 | 22.0 | 0.00 | 0.00 | 0.00 | 19 | 1006.0 |
| 20260903133019 | 66 | 176 | 6.0 | 14.0 | 0.00 | 0.00 | 0.00 | 19 | 1006.0 |
| 20260903131516 | 66 | 132 | 14.0 | 24.0 | 0.00 | 0.00 | 0.00 | 19 | 1005.7 |
| 20260903130013 | 67 | 135 | 14.0 | 24.0 | 0.00 | 0.00 | 0.00 | 19 | 1005.5 |
| 20260903124511 | 67 | 136 | 10.0 | 22.0 | 0.00 | 0.00 | 0.00 | 17 | 1005.2 |
| 20260903123021 | 67 | 98 | 9.0 | 15.0 | 0.00 | 0.00 | 0.00 | 18 | 1005.3 |
| 20260903121510 | 67 | 105 | 7.0 | 21.0 | 0.00 | 0.00 | 0.00 | 18 | 1005.3 |
| 20260903120007 | 67 | 144 | 9.0 | 19.0 | 0.00 | 0.00 | 0.00 | 18 | 1005.2 |
| 20260903114506 | 68 | 132 | 10.0 | 22.0 | 0.00 | 0.00 | 0.00 | 18 | 1005.0 |
| 20260903113005 | 68 | 120 | 15.0 | 25.0 | 0.00 | 0.00 | 0.00 | 17 | 1004.9 |
| 20260903111503 | 69 | 115 | 16.0 | 27.0 | 0.00 | 0.00 | 0.00 | 17 | 1004.6 |
| 20260903110001 | 69 | 125 | 15.0 | 24.0 | 0.00 | 0.00 | 0.00 | 16 | 1004.8 |
| 20260903104502 | 69 | 140 | 11.0 | 30.0 | 0.00 | 0.00 | 0.00 | 17 | 1004.8 |
| 20260903103100 | 69 | 134 | 15.0 | 26.0 | 0.00 | 0.00 | 0.00 | 17 | 1004.7 |
| 20260903101559 | 70 | 122 | 15.0 | 31.0 | 0.00 | 0.00 | 0.00 | 15 | 1004.6 |
| 20260903100100 | 70 | 119 | 17.0 | 31.0 | 0.00 | 0.00 | 0.00 | 15 | 1004.4 |
| 20260903094607 | 70 | 110 | 23.0 | 34.0 | 0.00 | 0.00 | 0.00 | 15 | 1004.3 |
| 20260903093103 | 69 | 99 | 11.0 | 25.0 | 0.00 | 0.00 | 0.00 | 16 | 1004.4 |
| 20260903091553 | 70 | 142 | 15.0 | 40.0 | 0.00 | 0.00 | 0.00 | 16 | 1004.3 |
| 20260903090052 | 69 | 177 | 10.0 | 17.0 | 0.00 | 0.00 | 0.00 | 17 | 1004.4 |
| 20260903084550 | 69 | 48 | 7.0 | 21.0 | 0.00 | 0.00 | 0.00 | 17 | 1004.2 |